カタログに戻る

BEIDOU 3M22

運用中ナビゲーションMEO
NORAD 44794·PAYLOAD·🇨🇳 China

打ち上げ Nov 23, 2019 から Xichang Satellite Launch Center

Loading…

次のパス (今後24時間)

TLE

最新Source: Space-Track

元期: Sep 12, 2026, 17:55 UTC

1 44794U 19078B   26255.74677581 -.00000057  00000-0  00000+0 0  9990
2 44794  53.8267 296.6989 0002734  33.1434 326.9360  1.86227548 46286

AllMySatでBEIDOU 3M22をリアルタイム追跡

Download on the App Store